sat.trackr.live / text

‹ back to catalog

STARLINK-36155

NORAD 66938 · 2025-286P

PAYLOAD ACTIVE UNKNOWN

§ Identity

Operator
Country
US
Launch date
2025-12-07
Launch site
AFWTR
Launch vehicle
Mass (kg)
RCS (m²)

Purposes: comms

External: N2YO · Heavens-Above · Gunter

§ Orbital elements

Epoch: 2026-09-20T11:15:23.679648Z

Period
93.85 min
Inclination
53.1587°
Eccentricity
0.0001843
Mean motion
15.34395218 rev/d
Perigee alt
461.5 km
Apogee alt
464.0 km
Semi-major
6,840.9 km
B*
4.4141e-4
RAAN
169.7985°
Arg perigee
88.2884°
Mean anomaly
271.8329°
Rev number
4,529

§ Raw data

STARLINK-361551 66938U 25286P   26263.46902407  .00014564  00000+0  44141-3 0  99922 66938  53.1587 169.7985 0001843  88.2884 271.8329 15.34395218 45295

JSON: /api/v1/satellites/66938 · /tle

For live sub-satellite position, see the globe view (requires WebGL).

§ Visibility from observer

Set your observer location to see the next 7 days of passes ≥ 10°. The values pass through the URL so the page stays shareable.

No JS? Fill the form by hand. The geolocation button needs JavaScript.